User: anonymous   Login
Location: Caltech
(34.1382°N, 118.1253°W)
Time: 15:28:03
(UTC-08:00)
Language:

Cosmos 2251 Rocket - Orbit

View from above orbital plane
View from above orbital plane
View from above satellite
View from above satellite

Ground track
Ground track

The orbit data is extracted from the following two-line orbital elements,

1 22676U 93036B   17345.82144090  .00000004  00000-0  10816-4 0  9996
2 22676  74.0418 216.9917 0019349 203.7222 156.3040 14.33943655280808
Epoch (UTC): 11 December 2017 19:42:52
Eccentricity: 0.0019349
inclination: 74.0418°
perigee height: 765 km
apogee height: 792 km
right ascension of ascending node: 216.9917°
argument of perigee: 203.7222°
revolutions per day: 14.33943655
mean anomaly at epoch: 156.3040°
orbit number at epoch: 28080

The dashed part of the orbit path shows where the satellite is in the earth's shadow,  

DLR